03:50
Airports
History
Links
Donate
Help keep this website running!
PayPal
Bitcoin
This page is community maintained. The information is intended for PC simulator navigation or reference.
Always use approved charts for navigation.
ULMM
Murmansk
Murmansk (ULMM)
???. ???????, Murmanskaya oblast, Russian Federation (184355)
(C)
Lat/Lng:68° 46' 54.02" N / 32° 45' 2.96" E
68.781671 / 32.750821
Elevation:266'ft / 81mMSL
ID / ICAO:ULMM
Runways:1
Longest:14-32
Concrete 2,495m / 8,184ft
Controlled:Yes
METAR03:30 GMT 2017-11-24
Altimeter: 30.00
Visibility: 6.2 statute miles
Wind: 0 knots (from 000°)
Temp: -14°c / 7°f
Humidity: 84.7%

METAR: ULMM 240330Z 00000MPS CAVOK M14/M16 Q1016 R31/410155 NOSIG RMK QFE754

(Powered by phpweather)
Airport Radio Frequencies
Tower: 120.3
Nearby VORs <50NM
Nearby NDBs
Runway 14 / 32
Dimensions:2494.5 x 45.1m 8184' x 148'ft
Surface:Concrete
Edge Lights:Medium intensity
Runway 14 [A]Runway 32 [B]
Heading:146°TH 326°TH
Lat:
Lng:
68° 47' 27.53"N
32° 44' 1.07"E
68° 46' 20.5"N
32° 46' 4.84"E
ALS:Calvert ILS Cat II
User Notes and Comments
68° 46' 54.02" N / 32° 45' 2.96" E
Distance To
Airport ID:
Nearby Airports
(C) HOYBUKTMOEN 95.6 NM
ENKR NW 312°
(C) Vadso 113.3 NM
ENVD NW 321°
(C) SVARTNES 116.2 NM
ENSS NNW 339°
(C) Ivalo 134.5 NM
EFIV ( WX ) W 264°
(C) BATSFJORD 145.4 NM
ENBS NNW 329°
4 Vuotso 150.6 NM
EFVU WSW 251°
(C) Berlevaag 169.3 NM
ENBV NNW 328°
VFR Chart
Flight Planning at SkyVector.com